CAPE
nan nan nan nan nan nan nan nan nan nan nan nan nan nan nan nan nan nan nan nan nan nan nan nan nan nan nan nan nan nan nan 0 1 1 3 4 6 6 8 9 9 12 14 15 15 17 20 22 22 25 28 28 29 29 32 38 38 44 50 57 57 64 71 76 76 84 93 98 100 100 98 99 97 97 103 102 102 102 108 109 109 113 118 119 119 118
nan nan nan nan nan nan nan nan nan nan nan nan nan nan nan nan nan nan nan nan nan nan nan nan nan nan nan nan nan nan nan nan 0 0 1 2 4 4 6 8 8 11 12 15 15 16 19 20 20 25 28 29 29 29 31 36 36 43 50 55 55 61 68 75 75 84 89 89 90 90 84 85 83 83 86 87 92 92 99 104 104 108 112 116 116 123
nan nan nan nan nan nan nan nan nan nan nan nan nan nan nan nan nan nan nan nan nan nan nan nan nan nan nan nan nan nan nan nan nan nan 0 1 3 3 5 7 7 9 12 14 14 16 19 21 21 25 28 29 30 30 33 37 37 41 46 54 54 59 62 69 69 75 79 80 77 77 73 72 69 69 74 83 89 89 98 100 100 101 105 113 113 119
nan nan nan nan nan nan nan nan nan nan nan nan nan nan nan nan nan nan nan nan nan nan nan nan nan nan nan nan nan nan nan nan nan nan nan 0 1 1 2 4 4 6 8 11 11 14 17 20 20 23 27 30 30 30 32 36 36 41 46 51 51 57 62 64 64 66 67 65 62 62 62 62 63 63 67 76 86 86 87 92 92 90 99 107 107 117
nan nan nan nan nan nan nan nan nan nan nan nan nan nan nan nan nan nan nan nan nan nan nan nan nan nan nan nan nan nan nan nan nan nan nan nan 0 0 1 1 1 3 5 7 7 10 14 16 16 21 26 31 32 32 34 34 34 40 46 48 48 54 57 57 57 59 57 56 54 54 55 56 60 60 61 70 73 73 76 78 78 79 86 96 96 110
nan nan nan nan nan nan nan nan nan nan nan nan nan nan nan nan nan nan nan nan nan nan nan nan nan nan nan nan nan nan nan nan nan nan nan nan nan nan 0 0 0 1 3 5 5 8 11 14 14 17 22 28 31 31 31 34 34 37 41 46 46 48 49 50 50 49 48 50 50 50 48 50 53 53 54 58 63 63 68 72 72 74 81 89 89 101
nan nan nan nan nan nan nan nan nan nan nan nan nan nan nan nan nan nan nan nan nan nan nan nan nan nan nan nan nan nan nan nan nan nan nan nan nan nan nan 1 1 2 3 5 5 7 9 13 13 16 20 24 27 27 30 32 32 34 38 40 40 41 45 45 45 42 41 43 41 41 41 42 45 45 43 48 51 51 60 66 66 70 73 84 84 94
nan nan nan nan nan nan nan nan nan nan nan nan nan nan nan nan nan nan 2 1 1 nan nan nan nan nan nan nan nan nan nan nan nan nan nan nan nan nan nan 1 1 2 3 4 4 4 5 8 8 11 13 16 18 18 21 21 21 21 22 22 22 23 24 25 25 27 27 26 27 27 28 29 31 31 34 36 38 38 44 53 53 66 77 89 89 100
nan nan nan nan nan nan nan nan nan nan nan nan nan nan nan nan nan nan nan nan nan nan nan nan nan nan nan nan nan nan nan nan nan nan nan nan nan nan nan 1 1 1 2 3 3 3 4 5 5 7 9 10 11 11 13 12 12 12 13 13 13 15 16 19 19 21 24 24 24 24 25 26 28 28 33 34 37 37 40 49 49 61 79 97 97 110
nan nan nan nan nan nan nan nan nan nan nan nan 0 0 0 nan nan nan nan nan nan nan nan nan nan nan nan nan nan nan nan nan 0 0 1 0 2 2 1 nan nan nan 1 1 1 2 3 3 3 4 5 5 6 6 6 5 5 5 6 7 7 10 12 13 13 16 17 22 26 26 27 29 34 34 39 39 42 42 45 52 52 61 82 105 105 118
nan nan nan nan nan nan nan nan nan nan 0 0 2 2 2 0 nan nan nan nan nan nan nan nan nan nan nan nan nan nan nan nan nan nan 0 1 1 1 1 0 0 0 1 1 1 0 0 1 1 1 1 1 1 1 1 1 1 1 3 4 4 6 7 10 10 14 18 22 28 28 30 36 42 42 48 52 53 53 59 59 59 66 84 107 107 123
nan nan 0 nan nan nan nan nan 0 0 1 0 0 0 nan nan nan nan nan nan nan nan nan nan nan nan nan nan nan nan nan nan nan nan nan nan nan nan nan nan nan nan nan nan nan nan nan nan nan nan nan nan nan nan nan nan nan 0 1 2 2 4 7 11 11 16 22 27 31 31 36 44 48 48 51 59 62 62 66 67 67 71 86 102 102 122
0 0 0 0 0 nan nan nan nan nan 0 0 nan nan nan nan nan nan nan nan nan nan nan nan nan nan nan nan nan nan nan nan nan nan nan nan nan nan nan nan nan nan nan nan nan nan nan nan nan nan nan nan nan nan nan nan nan 0 1 3 3 5 11 16 16 20 25 30 35 35 43 48 52 52 57 61 69 69 70 76 76 77 86 99 99 112
0 0 0 0 0 nan nan nan nan nan nan 0 nan nan nan nan nan nan nan nan nan nan nan nan nan nan nan nan nan nan nan nan nan nan nan nan nan nan nan nan nan nan nan nan nan nan nan nan nan nan nan nan nan nan nan 0 0 1 2 5 5 8 14 21 21 25 28 34 41 41 47 50 52 52 59 65 70 70 75 77 77 81 85 97 97 102
0 0 0 nan nan nan nan nan 0 0 0 0 nan nan nan nan nan nan nan nan nan nan nan nan nan nan nan nan nan nan 0 1 0 0 nan nan nan nan nan nan nan nan nan nan nan nan nan nan nan nan nan nan nan nan nan nan nan 2 4 8 8 13 18 24 24 27 30 36 41 41 44 48 54 54 60 69 73 73 80 85 85 85 89 95 95 98
0 0 0 nan nan nan 0 1 1 1 1 0 nan nan nan nan nan nan nan nan nan 1 0 0 0 0 nan nan nan nan 0 3 2 2 nan nan nan nan nan nan nan nan nan nan nan nan nan nan nan nan nan nan nan nan nan 1 1 4 7 12 12 16 21 26 26 27 30 36 41 41 45 47 55 55 61 70 75 75 78 82 82 86 93 100 100 101
2 2 2 2 2 2 1 2 1 1 1 0 0 0 nan nan 0 0 0 1 1 3 4 5 5 3 1 nan nan nan 1 4 4 4 0 nan nan nan nan nan nan nan nan nan nan nan nan nan nan nan nan nan nan nan 0 2 2 6 10 14 14 18 20 26 26 29 33 37 43 43 46 48 53 53 58 65 69 69 75 82 82 86 93 101 101 108
6 7 9 5 5 2 1 1 0 0 2 nan 0 0 0 1 2 2 4 6 6 7 8 9 9 6 3 2 nan nan 1 3 4 4 1 nan nan nan nan nan nan nan nan nan nan nan nan nan nan nan nan nan 0 0 1 4 4 6 10 14 14 16 21 25 25 29 33 38 40 40 43 46 51 51 54 59 62 62 67 73 73 81 88 98 98 107
7 9 8 4 4 2 1 1 0 0 nan nan nan nan 0 3 5 5 8 9 9 10 11 10 10 9 5 3 0 0 2 3 3 3 1 nan nan nan nan nan nan nan nan nan nan nan nan nan nan 0 0 1 1 1 2 4 4 6 9 13 13 15 18 22 22 27 32 36 37 37 39 40 46 46 49 52 57 57 64 68 68 74 79 84 84 92
6 5 2 1 1 1 1 1 0 0 0 1 2 2 3 5 8 8 9 13 13 13 15 12 12 10 6 4 1 1 2 4 3 3 1 nan nan nan nan nan nan nan nan nan nan nan nan nan nan nan nan 0 1 1 2 4 4 5 8 10 10 13 16 20 20 26 31 35 35 35 37 40 41 41 47 47 55 55 59 62 62 69 71 79 79 84
3 4 2 2 2 1 1 1 1 1 2 5 6 6 8 7 8 8 11 15 15 16 16 15 15 10 5 4 1 1 3 2 3 3 2 nan nan nan nan nan nan nan nan nan nan nan nan nan nan nan nan 0 1 1 2 3 3 5 6 8 8 11 15 19 19 24 28 32 35 35 38 38 40 40 42 45 49 49 55 59 59 66 71 76 76 80
4 3 3 3 3 2 1 1 3 3 6 8 8 8 8 6 8 8 15 16 16 21 18 11 11 7 4 2 1 1 3 3 3 3 2 0 nan nan nan nan nan nan nan nan nan nan nan nan nan nan nan 1 1 1 2 3 3 4 6 8 8 10 13 17 17 20 25 29 35 35 36 38 38 38 41 46 45 45 53 58 58 62 69 72 72 81
4 2 2 2 2 1 1 2 3 3 4 5 6 6 2 2 3 3 9 21 21 22 15 8 8 5 3 1 2 2 2 3 5 5 3 1 nan nan nan nan nan nan nan nan nan nan nan nan nan nan nan 1 1 1 1 2 2 3 5 7 7 9 10 14 14 17 21 27 31 31 34 36 39 39 42 45 47 47 51 53 53 56 59 62 62 67
4 4 3 2 2 5 9 6 3 3 nan nan nan nan 1 6 15 15 31 26 26 13 7 5 5 2 2 2 0 0 0 2 5 5 3 0 nan nan nan nan nan nan nan nan nan nan nan nan nan nan nan 0 0 0 1 2 2 4 5 6 6 7 8 11 11 13 17 23 28 28 33 37 39 39 42 43 43 43 46 49 49 50 50 51 51 55
5 5 5 6 6 17 14 10 12 12 1 nan 5 5 4 21 21 21 11 9 9 4 3 4 4 1 1 2 nan nan nan 1 2 2 1 nan nan nan nan nan nan nan nan nan nan nan nan nan nan nan nan nan 0 0 0 2 2 3 4 5 5 6 8 10 10 11 14 18 24 24 28 33 37 37 38 41 43 43 44 47 47 47 49 50 50 51
7 7 8 14 14 30 33 57 70 70 41 10 15 15 12 11 7 7 4 3 3 2 4 4 4 3 1 0 nan nan nan 0 0 0 0 0 nan nan nan nan nan nan nan nan nan nan nan nan nan nan nan nan nan nan 0 1 1 2 3 4 4 5 6 7 7 9 11 15 19 19 23 29 32 32 34 37 41 41 43 45 45 47 48 48 48 51
9 14 21 27 27 38 42 45 37 37 26 16 9 9 9 6 3 3 2 2 2 3 4 4 4 2 0 0 nan nan nan nan nan nan 0 0 nan nan nan nan nan nan nan nan nan nan nan nan nan nan nan nan nan nan 0 1 1 2 3 3 3 4 5 6 6 8 10 13 16 16 21 25 29 29 34 37 39 39 43 45 45 48 49 49 49 54
7 15 21 24 24 26 24 23 22 22 17 17 19 19 11 4 3 3 2 1 1 3 4 3 3 2 0 nan nan nan nan nan nan nan nan 0 0 0 nan nan nan 0 nan nan nan nan 1 0 0 nan nan nan nan nan 0 1 1 1 1 2 2 2 4 5 5 7 9 12 15 15 20 23 27 27 30 35 39 39 41 43 43 46 48 37 37 21
5 7 9 9 9 10 11 12 10 10 10 9 7 7 5 2 3 3 2 1 1 4 4 3 3 2 0 nan nan nan nan nan nan nan 0 1 0 0 nan nan nan nan nan 0 0 1 1 0 0 nan nan nan nan nan nan 0 0 nan 0 1 1 2 2 3 3 5 8 11 14 14 16 21 25 25 29 33 37 37 39 40 40 44 41 29 29 15
5 4 2 1 1 1 2 1 2 2 3 4 4 4 3 2 2 2 2 4 4 4 4 3 3 2 1 0 nan nan nan nan nan nan 1 0 nan nan nan nan nan nan nan 1 1 0 nan nan nan nan nan nan nan nan nan nan nan nan nan 0 0 0 1 2 2 4 7 9 13 13 16 19 23 23 24 27 31 31 35 39 39 32 23 16 16 16
2 0 nan nan nan nan nan nan nan nan 0 2 2 2 3 2 3 3 4 4 4 3 2 2 2 1 1 1 0 0 nan nan 0 0 0 0 0 0 nan 0 0 0 1 1 1 0 nan nan nan nan nan nan nan nan nan nan nan nan nan nan nan nan 0 1 1 3 6 9 12 12 13 15 17 17 16 20 25 25 30 34 34 30 14 13 13 12
nan nan nan nan nan nan nan nan nan nan nan nan nan nan 0 1 2 2 2 2 2 2 3 2 2 2 2 2 1 1 nan nan nan nan 1 2 1 1 0 1 1 2 3 4 4 2 0 0 0 nan nan nan nan nan nan nan nan nan nan nan nan nan nan 1 1 2 1 4 6 6 7 8 9 9 11 13 15 15 19 23 23 26 15 10 10 11
nan nan nan nan nan nan nan nan nan nan nan nan nan nan nan 0 2 2 1 2 2 2 3 3 3 2 2 2 1 1 0 nan nan nan 4 2 2 2 1 1 1 2 4 5 5 4 3 1 1 1 0 nan nan nan nan nan nan nan nan nan nan nan nan 0 0 0 0 1 3 3 5 5 7 7 9 11 13 13 16 19 19 25 27 10 10 12
nan nan nan nan nan nan nan nan nan nan nan nan nan nan nan nan 0 0 1 2 2 3 3 4 4 3 2 2 1 1 nan nan 0 0 4 2 0 0 2 1 1 1 2 2 2 2 2 1 1 1 0 nan nan nan nan nan nan nan nan nan nan nan nan 0 0 0 0 0 0 0 1 1 7 7 6 8 10 10 14 20 20 25 34 23 23 16
nan nan nan nan nan nan nan nan nan nan nan nan nan nan nan nan nan nan 1 2 2 2 3 4 4 3 3 2 1 1 nan nan 0 0 6 3 2 2 2 1 1 1 2 2 2 1 3 1 1 1 1 0 nan nan nan nan nan nan nan 0 0 nan 0 1 1 1 0 0 nan nan nan 0 1 1 2 6 10 10 16 23 23 27 32 38 38 35
nan nan nan nan nan nan nan nan nan nan nan nan nan nan nan nan nan nan 1 3 3 3 5 5 5 4 3 2 1 1 0 nan 0 0 5 4 2 2 2 2 2 1 2 3 3 3 1 3 3 4 3 1 nan nan nan nan nan nan nan nan nan 0 1 2 2 1 0 0 0 0 0 1 2 2 4 10 15 15 18 24 24 26 30 38 38 40
nan nan nan nan nan nan nan nan nan nan nan nan nan nan nan nan nan nan 0 5 5 5 4 5 5 4 7 3 2 2 1 0 1 1 4 5 1 1 1 4 4 3 1 2 2 2 1 2 2 3 2 0 nan nan nan 0 0 0 0 0 0 0 0 1 1 2 2 3 2 2 2 2 4 4 7 14 15 15 20 23 23 20 22 26 26 30
nan nan nan nan nan nan nan nan nan nan nan nan nan nan nan nan 0 0 0 2 2 5 4 2 2 1 6 7 6 6 4 2 3 3 4 5 1 1 1 4 4 5 3 2 2 1 1 1 1 1 1 0 2 2 2 1 1 1 0 0 0 1 1 1 1 3 3 5 6 6 5 4 3 3 4 7 5 5 5 6 6 14 18 18 18 26
nan nan nan nan nan nan nan nan nan nan nan nan nan nan nan 0 1 1 0 0 0 0 1 0 0 0 3 7 10 10 8 4 0 0 2 5 5 5 1 2 2 3 2 1 1 0 1 0 0 1 2 1 2 2 1 1 1 1 0 0 0 0 0 1 1 3 4 4 6 6 4 3 3 3 3 4 4 4 4 5 5 9 10 9 9 18
nan nan nan nan nan nan nan nan nan nan nan nan 0 0 0 0 nan nan nan nan nan nan nan 1 1 1 3 5 5 5 6 4 7 7 2 1 3 3 2 0 0 2 3 2 2 1 0 1 1 1 2 0 1 1 2 1 1 1 4 1 1 0 nan 0 0 1 2 2 3 3 3 2 3 3 4 4 5 5 4 3 3 6 9 8 8 8
nan nan nan nan nan nan nan nan nan nan nan 0 0 0 0 0 0 0 nan nan nan 0 0 2 2 3 3 4 2 2 2 4 5 5 2 nan 1 1 3 2 2 2 1 2 2 1 1 1 1 1 1 0 2 2 4 3 3 5 7 2 2 1 0 1 1 1 2 2 4 4 4 4 5 5 3 4 2 2 2 4 4 5 7 5 5 4
nan nan nan nan nan nan nan nan nan nan 0 0 1 1 1 1 1 1 0 1 1 1 2 3 3 3 3 1 1 1 2 2 3 3 2 nan 0 0 5 5 5 2 1 2 2 2 3 2 2 1 2 1 0 0 2 2 2 4 5 2 2 2 3 3 3 0 1 2 3 3 5 3 2 2 3 1 0 0 3 3 3 9 9 4 4 2
nan nan nan nan nan nan nan 0 2 2 1 1 1 1 1 1 1 1 2 2 2 2 2 3 3 4 2 1 0 0 2 4 5 5 6 3 3 3 8 7 7 4 1 0 0 3 5 5 5 2 2 1 nan nan 2 4 4 3 3 4 4 3 1 1 1 0 2 2 2 2 2 2 2 2 1 1 1 1 3 6 6 13 11 3 3 1
nan nan nan nan nan 0 2 2 2 2 2 2 2 2 2 1 3 3 4 3 3 2 2 3 3 3 2 1 0 0 0 2 4 4 5 7 8 8 10 9 9 6 3 1 1 1 5 4 4 2 3 2 3 3 3 3 3 2 1 3 3 1 0 1 1 0 1 2 1 1 2 2 1 1 1 2 1 1 2 2 2 2 7 3 3 1
nan nan nan 0 0 1 1 3 3 3 3 3 2 2 2 2 4 4 4 3 3 3 3 3 3 2 1 0 0 0 0 0 2 2 3 5 10 10 10 9 9 9 5 2 2 0 2 3 3 2 2 0 1 1 3 2 2 3 3 3 3 3 2 2 2 1 2 1 1 1 1 2 1 1 2 3 1 1 1 2 2 0 1 2 2 1
0 1 0 1 1 1 2 3 3 3 3 3 3 3 3 3 4 4 4 4 4 3 3 4 4 2 1 0 0 0 0 0 0 0 1 4 6 6 9 8 8 7 5 5 5 4 0 0 0 2 1 0 nan nan 0 1 1 1 2 3 3 2 2 2 2 2 1 1 1 1 1 1 0 0 1 2 2 2 1 0 0 0 1 2 2 3
1 1 1 2 2 1 1 2 2 2 2 3 3 3 3 3 3 3 4 4 4 4 4 4 4 2 1 1 0 0 0 0 0 0 0 1 4 4 5 7 7 8 5 3 3 5 5 3 3 2 nan nan 1 1 2 1 1 0 1 1 1 1 1 1 1 1 2 0 0 0 1 0 nan nan 1 2 1 1 1 0 0 1 2 2 2 2
2 2 2 2 2 1 1 1 2 2 2 2 2 2 3 3 4 4 4 4 4 5 5 3 3 2 1 1 1 1 1 0 0 0 1 1 2 2 4 4 4 5 6 6 6 6 7 4 4 4 0 0 1 1 2 1 1 1 1 1 1 1 2 1 1 1 2 1 nan nan 0 nan 0 0 1 2 2 2 1 0 0 0 2 3 3 1
2 3 2 1 1 2 1 1 2 2 2 2 2 2 2 4 10 10 5 4 4 4 3 2 2 1 1 1 1 1 2 1 1 1 1 1 2 2 3 3 3 4 4 6 6 6 7 8 8 8 2 1 0 0 2 2 2 3 2 2 2 1 2 2 2 1 1 nan nan nan nan nan nan nan nan 0 2 2 2 3 3 1 1 2 2 1
2 1 1 0 0 1 1 1 1 1 2 3 3 3 2 3 3 3 3 4 4 3 3 3 3 2 1 1 1 1 2 2 1 1 1 1 1 1 2 3 3 5 6 4 4 5 5 7 7 9 9 4 1 1 3 3 3 3 3 3 3 2 0 1 1 1 1 0 0 0 1 nan 0 0 nan 0 2 2 5 4 4 1 2 2 2 2
1 1 0 0 0 0 0 0 1 1 2 3 3 3 4 3 3 3 3 3 3 2 3 3 3 3 1 1 2 2 2 2 1 1 1 1 1 1 3 3 3 3 4 3 3 4 4 3 3 2 5 10 5 5 nan 1 1 3 4 3 3 4 2 2 2 3 5 3 2 2 1 1 0 0 nan 0 4 4 5 3 3 2 1 2 2 2
CIN
nan nan nan nan nan nan nan nan nan nan nan nan nan nan nan nan nan nan nan nan nan nan nan nan nan nan nan nan nan nan nan -0 -0 -0 -0 -0 -0 -0 -0 -0 -0 -0 -0 -0 -0 -0 -0 -0 -0 -0 -0 -0 -0 -0 -0 -0 -0 -0 -0 -0 -0 -0 -0 -0 -0 -0 -0 -0 -0 -0 -0 -0 -0 -0 -0 -0 -0 -0 -0 -0 -0 -0 -0 -0 -0 -0
nan nan nan nan nan nan nan nan nan nan nan nan nan nan nan nan nan nan nan nan nan nan nan nan nan nan nan nan nan nan nan nan -0 -0 -0 -0 -0 -0 -0 -0 -0 -0 -0 -0 -0 -0 -0 -0 -0 -0 -0 -0 -0 -0 -0 -0 -0 -0 -0 -0 -0 -0 -0 -0 -0 -0 -0 -0 -0 -0 -0 -0 -0 -0 -0 -0 -0 -0 -0 -0 -0 -0 -0 -0 -0 -0
nan nan nan nan nan nan nan nan nan nan nan nan nan nan nan nan nan nan nan nan nan nan nan nan nan nan nan nan nan nan nan nan nan nan -0 -0 -0 -0 -0 -0 -0 -0 -0 -0 -0 -0 -0 -0 -0 -0 -0 -0 -0 -0 -0 -0 -0 -0 -0 -0 -0 -0 -0 -0 -0 -0 -0 -0 -0 -0 -0 -0 -0 -0 -0 -0 -0 -0 -0 -0 -0 -0 -0 -0 -0 -0
nan nan nan nan nan nan nan nan nan nan nan nan nan nan nan nan nan nan nan nan nan nan nan nan nan nan nan nan nan nan nan nan nan nan nan -0 -0 -0 -0 -0 -0 -0 -0 -0 -0 -0 -0 -0 -0 -0 -0 -0 -0 -0 -0 -0 -0 -0 -0 -0 -0 -0 -0 -0 -0 -0 -0 -0 -0 -0 -0 -0 -0 -0 -0 -0 -0 -0 -0 -0 -0 -0 -0 -0 -0 -0
nan nan nan nan nan nan nan nan nan nan nan nan nan nan nan nan nan nan nan nan nan nan nan nan nan nan nan nan nan nan nan nan nan nan nan nan -0 -0 -0 -0 -0 -0 -0 -0 -0 -0 -0 -0 -0 -0 -0 -0 -0 -0 -0 -0 -0 -0 -0 -0 -0 -0 -0 -0 -0 -0 -0 -0 -0 -0 -0 -0 -0 -0 -0 -0 -0 -0 -0 -0 -0 -0 -0 -0 -0 -0
nan nan nan nan nan nan nan nan nan nan nan nan nan nan nan nan nan nan nan nan nan nan nan nan nan nan nan nan nan nan nan nan nan nan nan nan nan nan -0 -0 -0 -0 -0 -0 -0 -0 -0 -0 -0 -0 -0 -0 -0 -0 -0 -0 -0 -0 -0 -0 -0 -0 -0 -0 -0 -0 -0 -0 -0 -0 -0 -0 -0 -0 -0 -0 -0 -0 -0 -0 -0 -0 -0 -0 -0 -0
nan nan nan nan nan nan nan nan nan nan nan nan nan nan nan nan nan nan nan nan nan nan nan nan nan nan nan nan nan nan nan nan nan nan nan nan nan nan nan -0 -0 -0 -0 -0 -0 -0 -0 -0 -0 -0 -0 -0 -0 -0 -0 -0 -0 -0 -0 -0 -0 -0 -0 -0 -0 -0 -0 -0 -0 -0 -0 -0 -0 -0 -0 -0 -0 -0 -0 -0 -0 -0 -0 -0 -0 -0
nan nan nan nan nan nan nan nan nan nan nan nan nan nan nan nan nan nan -0 -0 -0 nan nan nan nan nan nan nan nan nan nan nan nan nan nan nan nan nan nan -0 -0 -0 -0 -0 -0 -0 -0 -0 -0 -0 -0 -0 -0 -0 -0 -0 -0 -0 -0 -0 -0 -0 -0 -0 -0 -0 -0 -0 -0 -0 -0 -0 -0 -0 -0 -0 -0 -0 -0 -0 -0 -0 -0 -0 -0 -0
nan nan nan nan nan nan nan nan nan nan nan nan nan nan nan nan nan nan nan nan nan nan nan nan nan nan nan nan nan nan nan nan nan nan nan nan nan nan nan -0 -0 -0 -0 -0 -0 -0 -0 -0 -0 -0 -0 -0 -0 -0 -0 -0 -0 -0 -0 -0 -0 -0 -0 -0 -0 -0 -0 -0 -0 -0 -0 -0 -0 -0 -0 -0 -0 -0 -0 -0 -0 -0 -0 -0 -0 -0
nan nan nan nan nan nan nan nan nan nan nan nan -0 -0 -0 nan nan nan nan nan nan nan nan nan nan nan nan nan nan nan nan nan -0 -0 -0 -0 -0 -0 -0 nan nan nan -0 -0 -0 -0 -0 -0 -0 -0 -0 -0 -0 -0 -0 -0 -0 -0 -0 -0 -0 -0 -0 -0 -0 -0 -0 -0 -0 -0 -0 -0 -0 -0 -0 -0 -0 -0 -0 -0 -0 -0 -0 -0 -0 -0
nan nan nan nan nan nan nan nan nan nan -0 -0 -0 -0 -0 -0 nan nan nan nan nan nan nan nan nan nan nan nan nan nan nan nan nan nan -0 -0 -0 -0 -0 -0 -0 -0 -0 -0 -0 -0 -0 -0 -0 -0 -0 -0 -0 -0 -0 -0 -0 -0 -0 -0 -0 -0 -0 -0 -0 -0 -0 -0 -0 -0 -0 -0 -0 -0 -0 -0 -0 -0 -0 -0 -0 -0 -0 -0 -0 -0
nan nan -0 nan nan nan nan nan -0 -0 -0 -0 -0 -0 nan nan nan nan nan nan nan nan nan nan nan nan nan nan nan nan nan nan nan nan nan nan nan nan nan nan nan nan nan nan nan nan nan nan nan nan nan nan nan nan nan nan nan -0 -0 -0 -0 -0 -0 -0 -0 -0 -0 -0 -0 -0 -0 -0 -0 -0 -0 -0 -0 -0 -0 -0 -0 -0 -0 -0 -0 -0
-0 -0 -0 -0 -0 nan nan nan nan nan -0 -0 nan nan nan nan nan nan nan nan nan nan nan nan nan nan nan nan nan nan nan nan nan nan nan nan nan nan nan nan nan nan nan nan nan nan nan nan nan nan nan nan nan nan nan nan nan -0 -0 -0 -0 -0 -0 -0 -0 -0 -0 -0 -0 -0 -0 -0 -0 -0 -0 -0 -0 -0 -0 -0 -0 -0 -0 -0 -0 -0
-0 -0 -0 -0 -0 nan nan nan nan nan nan -0 nan nan nan nan nan nan nan nan nan nan nan nan nan nan nan nan nan nan nan nan nan nan nan nan nan nan nan nan nan nan nan nan nan nan nan nan nan nan nan nan nan nan nan -0 -0 -0 -0 -0 -0 -0 -0 -0 -0 -0 -0 -0 -0 -0 -0 -0 -0 -0 -0 -0 -0 -0 -0 -0 -0 -0 -0 -0 -0 -0
-0 -0 -0 nan nan nan nan nan -0 -0 -0 -0 nan nan nan nan nan nan nan nan nan nan nan nan nan nan nan nan nan nan -0 -0 -0 -0 nan nan nan nan nan nan nan nan nan nan nan nan nan nan nan nan nan nan nan nan nan nan nan -0 -0 -0 -0 -0 -0 -0 -0 -0 -0 -0 -0 -0 -0 -0 -0 -0 -0 -0 -0 -0 -0 -0 -0 -0 -0 -0 -0 -0
-0 -0 -0 nan nan nan -0 -0 -0 -0 -0 -0 nan nan nan nan nan nan nan nan nan -0 -0 -0 -0 -0 nan nan nan nan -0 -0 -0 -0 nan nan nan nan nan nan nan nan nan nan nan nan nan nan nan nan nan nan nan nan nan -0 -0 -0 -0 -0 -0 -0 -0 -0 -0 -0 -0 -0 -0 -0 -0 -0 -0 -0 -0 -0 -0 -0 -0 -0 -0 -0 -0 -0 -0 -0
-0 -0 -0 -0 -0 -0 -0 -0 -0 -0 -0 -0 -0 -0 nan nan -0 -0 -0 -0 -0 -0 -0 -0 -0 -0 -0 nan nan nan -0 -0 -0 -0 -0 nan nan nan nan nan nan nan nan nan nan nan nan nan nan nan nan nan nan nan -0 -0 -0 -0 -0 -0 -0 -0 -0 -0 -0 -0 -0 -0 -0 -0 -0 -0 -0 -0 -0 -0 -0 -0 -0 -0 -0 -0 -0 -0 -0 -0
-0 -0 -0 -0 -0 -0 -0 -0 -0 -0 -0 nan -0 -0 -0 -0 -0 -0 -0 -0 -0 -0 -0 -0 -0 -0 -0 -0 nan nan -0 -0 -0 -0 -0 nan nan nan nan nan nan nan nan nan nan nan nan nan nan nan nan nan -0 -0 -0 -0 -0 -0 -0 -0 -0 -0 -0 -0 -0 -0 -0 -0 -0 -0 -0 -0 -0 -0 -0 -0 -0 -0 -0 -0 -0 -0 -0 -0 -0 -0
-0 -0 -0 -0 -0 -0 -0 -0 -0 -0 nan nan nan nan -0 -0 -0 -0 -0 -0 -0 -0 -0 -0 -0 -0 -0 -0 -0 -0 -0 -0 -0 -0 -0 nan nan nan nan nan nan nan nan nan nan nan nan nan nan -0 -0 -0 -0 -0 -0 -0 -0 -0 -0 -0 -0 -0 -0 -0 -0 -0 -0 -0 -0 -0 -0 -0 -0 -0 -0 -0 -0 -0 -0 -0 -0 -0 -0 -0 -0 -0
-0 -0 -0 -0 -0 -0 -0 -0 -0 -0 -0 -0 -0 -0 -0 -0 -0 -0 -0 -0 -0 -0 -0 -0 -0 -0 -0 -0 -0 -0 -0 -0 -0 -0 -0 nan nan nan nan nan nan nan nan nan nan nan nan nan nan nan nan -0 -0 -0 -0 -0 -0 -0 -0 -0 -0 -0 -0 -0 -0 -0 -0 -0 -0 -0 -0 -0 -0 -0 -0 -0 -0 -0 -0 -0 -0 -0 -0 -0 -0 -0
-0 -0 -0 -0 -0 -0 -0 -0 -0 -0 -0 -0 -0 -0 -0 -0 -0 -0 -0 -0 -0 -0 -0 -0 -0 -0 -0 -0 -0 -0 -0 -0 -0 -0 -0 nan nan nan nan nan nan nan nan nan nan nan nan nan nan nan nan -0 -0 -0 -0 -0 -0 -0 -0 -0 -0 -0 -0 -0 -0 -0 -0 -0 -0 -0 -0 -0 -0 -0 -0 -0 -0 -0 -0 -0 -0 -0 -0 -0 -0 -0
-0 -0 -0 -0 -0 -0 -0 -0 -0 -0 -0 -0 -0 -0 -0 -0 -0 -0 -0 -0 -0 -0 -0 -0 -0 -0 -0 -0 -0 -0 -0 -0 -0 -0 -0 -0 nan nan nan nan nan nan nan nan nan nan nan nan nan nan nan -0 -0 -0 -0 -0 -0 -0 -0 -0 -0 -0 -0 -0 -0 -0 -0 -0 -0 -0 -0 -0 -0 -0 -0 -0 -0 -0 -0 -0 -0 -0 -0 -0 -0 -0
-0 -0 -0 -0 -0 -0 -0 -0 -0 -0 -0 -0 -0 -0 -0 -0 -0 -0 -0 -0 -0 -0 -0 -0 -0 -0 -0 -0 -0 -0 -0 -0 -0 -0 -0 -0 nan nan nan nan nan nan nan nan nan nan nan nan nan nan nan -0 -0 -0 -0 -0 -0 -0 -0 -0 -0 -0 -0 -0 -0 -0 -0 -0 -0 -0 -0 -0 -0 -0 -0 -0 -0 -0 -0 -0 -0 -0 -0 -0 -0 -0
-0 -0 -0 -0 -0 -0 -0 -0 -0 -0 nan nan nan nan -3 -0 -0 -0 -0 -0 -0 -0 -0 -0 -0 -0 -0 -0 -0 -0 -0 -0 -0 -0 -0 -0 nan nan nan nan nan nan nan nan nan nan nan nan nan nan nan -0 -0 -0 -0 -0 -0 -0 -0 -0 -0 -0 -0 -0 -0 -0 -0 -0 -0 -0 -0 -0 -0 -0 -0 -0 -0 -0 -0 -0 -0 -0 -0 -0 -0 -0
-0 -0 -0 -0 -0 -0 -0 -0 -0 -0 -2 nan -0 -0 -0 -0 -0 -0 -0 -0 -0 -0 -0 -0 -0 -0 -0 -0 nan nan nan -0 -0 -0 -0 nan nan nan nan nan nan nan nan nan nan nan nan nan nan nan nan nan -0 -0 -0 -0 -0 -0 -0 -0 -0 -0 -0 -0 -0 -0 -0 -0 -0 -0 -0 -0 -0 -0 -0 -0 -0 -0 -0 -0 -0 -0 -0 -0 -0 -0
-0 -0 -0 -0 -0 -0 -0 -0 -0 -0 -0 -0 -0 -0 -0 -0 -0 -0 -0 -0 -0 -0 -0 -0 -0 -0 -0 -0 nan nan nan -0 -0 -0 -0 -0 nan nan nan nan nan nan nan nan nan nan nan nan nan nan nan nan nan nan -0 -0 -0 -0 -0 -0 -0 -0 -0 -0 -0 -0 -0 -0 -0 -0 -0 -0 -0 -0 -0 -0 -0 -0 -0 -0 -0 -0 -0 -0 -0 -0
-0 -0 -0 -0 -0 -0 -0 -0 -0 -0 -0 -0 -0 -0 -0 -0 -0 -0 -0 -0 -0 -0 -0 -0 -0 -0 -0 -0 nan nan nan nan nan nan -0 -0 nan nan nan nan nan nan nan nan nan nan nan nan nan nan nan nan nan nan -0 -0 -0 -0 -0 -0 -0 -0 -0 -0 -0 -0 -0 -0 -0 -0 -0 -0 -0 -0 -0 -0 -0 -0 -0 -0 -0 -0 -0 -0 -0 -0
-0 -0 -0 -0 -0 -0 -0 -0 -0 -0 -0 -0 -0 -0 -0 -0 -0 -0 -0 -0 -0 -0 -0 -0 -0 -0 -0 nan nan nan nan nan nan nan nan -0 -0 -0 nan nan nan -0 nan nan nan nan -0 -0 -0 nan nan nan nan nan -0 -0 -0 -0 -0 -0 -0 -0 -0 -0 -0 -0 -0 -0 -0 -0 -0 -0 -0 -0 -0 -0 -0 -0 -0 -0 -0 -0 -0 -0 -0 -0
-0 -0 -0 -0 -0 -0 -0 -0 -0 -0 -0 -0 -0 -0 -0 -0 -0 -0 -0 -0 -0 -0 -0 -0 -0 -0 -0 nan nan nan nan nan nan nan -0 -0 -0 -0 nan nan nan nan nan -0 -0 -0 -0 -0 -0 nan nan nan nan nan nan -0 -0 nan -0 -0 -0 -0 -0 -0 -0 -0 -0 -0 -0 -0 -0 -0 -0 -0 -0 -0 -0 -0 -0 -0 -0 -0 -0 -0 -0 -0
-0 -0 -0 -0 -0 -0 -0 -0 -0 -0 -0 -0 -0 -0 -0 -0 -0 -0 -0 -0 -0 -0 -0 -0 -0 -0 -0 -0 nan nan nan nan nan nan -0 -0 nan nan nan nan nan nan nan -0 -0 -0 nan nan nan nan nan nan nan nan nan nan nan nan nan -0 -0 -0 -0 -0 -0 -0 -0 -0 -0 -0 -0 -0 -0 -0 -0 -0 -0 -0 -0 -0 -0 -0 -0 -0 -0 -0
-0 -0 nan nan nan nan nan nan nan nan -0 -0 -0 -0 -0 -0 -0 -0 -0 -0 -0 -0 -0 -0 -0 -0 -0 -0 -0 -0 nan nan -0 -0 -0 -0 -0 -0 nan -0 -0 -0 -0 -0 -0 -0 nan nan nan nan nan nan nan nan nan nan nan nan nan nan nan nan -0 -0 -0 -0 -0 -0 -0 -0 -0 -0 -0 -0 -0 -0 -0 -0 -0 -0 -0 -0 -0 -0 -0 -0
nan nan nan nan nan nan nan nan nan nan nan nan nan nan -0 -0 -0 -0 -0 -0 -0 -0 -0 -0 -0 -0 -0 -0 -0 -0 nan nan nan nan -0 -0 -0 -0 -0 -0 -0 -0 -0 -0 -0 -0 -0 -0 -0 nan nan nan nan nan nan nan nan nan nan nan nan nan nan -0 -0 -0 -0 -0 -0 -0 -0 -0 -0 -0 -0 -0 -0 -0 -0 -0 -0 -0 -0 -0 -0 -0
nan nan nan nan nan nan nan nan nan nan nan nan nan nan nan -0 -0 -0 -0 -0 -0 -0 -0 -0 -0 -0 -0 -0 -0 -0 -0 nan nan nan -0 -0 -0 -0 -0 -0 -0 -0 -0 -0 -0 -0 -0 -0 -0 -0 -0 nan nan nan nan nan nan nan nan nan nan nan nan -0 -0 -0 -0 -0 -0 -0 -0 -0 -0 -0 -0 -0 -0 -0 -0 -0 -0 -0 -0 -0 -0 -0
nan nan nan nan nan nan nan nan nan nan nan nan nan nan nan nan -0 -0 -0 -0 -0 -0 -0 -0 -0 -0 -0 -0 -0 -0 nan nan -0 -0 -0 -0 -0 -0 -0 -0 -0 -0 -0 -0 -0 -0 -0 -0 -0 -0 -0 nan nan nan nan nan nan nan nan nan nan nan nan -0 -0 -0 -0 -0 -0 -0 -0 -0 -0 -0 -0 -0 -0 -0 -0 -0 -0 -0 -0 -0 -0 -0
nan nan nan nan nan nan nan nan nan nan nan nan nan nan nan nan nan nan -0 -0 -0 -0 -0 -0 -0 -0 -0 -0 -0 -0 nan nan -0 -0 -0 -0 -0 -0 -0 -0 -0 -0 -0 -0 -0 -0 -0 -0 -0 -0 -0 -0 nan nan nan nan nan nan nan -0 -0 nan -0 -0 -0 -0 -0 -0 nan nan nan -0 -0 -0 -0 -0 -0 -0 -0 -0 -0 -0 -0 -0 -0 -0
nan nan nan nan nan nan nan nan nan nan nan nan nan nan nan nan nan nan -0 -0 -0 -0 -0 -0 -0 -0 -0 -0 -0 -0 -0 nan -0 -0 -0 -0 -0 -0 -0 -0 -0 -0 -0 -0 -0 -0 -0 -0 -0 -0 -0 -0 nan nan nan nan nan nan nan nan nan -0 -0 -0 -0 -0 -0 -0 -0 -0 -0 -0 -0 -0 -0 -0 -0 -0 -0 -0 -0 -0 -0 -0 -0 -0
nan nan nan nan nan nan nan nan nan nan nan nan nan nan nan nan nan nan -0 -0 -0 -0 -0 -0 -0 -0 -0 -0 -0 -0 -0 -0 -0 -0 -0 -0 -0 -0 -0 -0 -0 -0 -0 -0 -0 -0 -0 -0 -0 -0 -0 -0 nan nan nan -0 -0 -0 -0 -0 -0 -0 -0 -0 -0 -0 -0 -0 -0 -0 -0 -0 -0 -0 -0 -0 -0 -0 -0 -0 -0 -0 -0 -0 -0 -0
nan nan nan nan nan nan nan nan nan nan nan nan nan nan nan nan -0 -0 -0 -0 -0 -0 -0 -0 -0 -0 -0 -0 -0 -0 -0 -0 -0 -0 -0 -0 -0 -0 -0 -0 -0 -0 -0 -0 -0 -0 -0 -0 -0 -0 -0 -0 -0 -0 -0 -0 -0 -0 -0 -0 -0 -0 -0 -0 -0 -0 -0 -0 -0 -0 -0 -0 -0 -0 -0 -0 -0 -0 -0 -0 -0 -0 -0 -0 -0 -0
nan nan nan nan nan nan nan nan nan nan nan nan nan nan nan -0 -0 -0 -0 -0 -0 -0 -0 -0 -0 -0 -2 -3 -0 -0 -0 -2 -12 -12 -7 -2 -0 -0 -0 -0 -0 -0 -0 -0 -0 -0 -0 -0 -0 -0 -0 -0 -0 -0 -0 -0 -0 -0 -0 -0 -0 -0 -0 -0 -0 -0 -0 -0 -0 -0 -0 -0 -0 -0 -0 -0 -0 -0 -0 -0 -0 -0 -0 -0 -0 -0
nan nan nan nan nan nan nan nan nan nan nan nan -0 -0 -0 -0 nan nan nan nan nan nan nan -0 -0 -0 -0 -0 -0 -0 -0 -8 -2 -2 -6 -7 -2 -2 -0 -0 -0 -0 -0 -0 -0 -0 -0 -0 -0 -0 -0 -0 -0 -0 -0 -0 -0 -0 -0 -0 -0 -0 nan -0 -0 -0 -0 -0 -0 -0 -0 -0 -0 -0 -0 -0 -0 -0 -0 -0 -0 -0 -0 -0 -0 -0
nan nan nan nan nan nan nan nan nan nan nan -0 -0 -0 -0 -0 -0 -0 nan nan nan -0 -0 -0 -0 -0 -0 -0 -0 -0 -0 -2 -0 -0 -8 nan -2 -2 -0 -0 -0 -0 -0 -0 -0 -0 -0 -0 -0 -0 -0 -0 -0 -0 -0 -0 -0 -0 -0 -0 -0 -0 -0 -0 -0 -0 -0 -0 -0 -0 -0 -0 -0 -0 -0 -0 -0 -0 -0 -0 -0 -0 -0 -0 -0 -0
nan nan nan nan nan nan nan nan nan nan -0 -0 -0 -0 -0 -0 -0 -0 -0 -0 -0 -0 -0 -0 -0 -0 -0 -0 -0 -0 -0 -0 -4 -4 -10 nan -7 -7 -0 -0 -0 -0 -0 -0 -0 -0 -0 -0 -0 -0 -0 -0 -0 -0 -0 -0 -0 -0 -0 -0 -0 -0 -0 -0 -0 -0 -0 -0 -0 -0 -0 -0 -0 -0 -0 -0 -0 -0 -0 -0 -0 -0 -0 -0 -0 -0
nan nan nan nan nan nan nan -0 -0 -0 -0 -0 -0 -0 -0 -0 -0 -0 -0 -0 -0 -0 -0 -0 -0 -0 -0 -0 -0 -0 -0 -0 -0 -0 -0 -14 -12 -12 -0 -0 -0 -0 -0 -0 -0 -0 -0 -0 -0 -0 -0 -0 nan nan -0 -0 -0 -0 -0 -0 -0 -0 -0 -0 -0 -0 -0 -0 -0 -0 -0 -0 -0 -0 -0 -0 -0 -0 -0 -0 -0 -0 -0 -0 -0 -0
nan nan nan nan nan -0 -0 -0 -0 -0 -0 -0 -0 -0 -0 -0 -0 -0 -0 -0 -0 -0 -0 -0 -0 -0 -0 -0 -0 -0 -0 -0 -0 -0 -0 -0 -8 -8 -0 -0 -0 -0 -0 -0 -0 -0 -0 -0 -0 -0 -0 -0 -0 -0 -0 -0 -0 -0 -0 -0 -0 -0 -0 -0 -0 -0 -0 -0 -0 -0 -0 -0 -0 -0 -0 -0 -0 -0 -0 -0 -0 -0 -0 -0 -0 -0
nan nan nan -0 -0 -0 -0 -0 -0 -0 -0 -0 -0 -0 -0 -0 -0 -0 -0 -0 -0 -0 -0 -0 -0 -0 -0 -0 -0 -0 -0 -0 -0 -0 -0 -0 -1 -1 -2 -0 -0 -0 -0 -0 -0 -0 -0 -0 -0 -0 -0 -0 -0 -0 -0 -0 -0 -0 -0 -0 -0 -0 -0 -0 -0 -0 -0 -0 -0 -0 -0 -0 -0 -0 -0 -0 -0 -0 -0 -0 -0 -0 -0 -0 -0 -0
-0 -0 -0 -0 -0 -0 -0 -0 -0 -0 -0 -0 -0 -0 -0 -0 -0 -0 -0 -0 -0 -0 -0 -0 -0 -0 -0 -0 -0 -0 -0 -0 -0 -0 -0 -0 -0 -0 -0 -0 -0 -0 -0 -0 -0 -0 -0 -0 -0 -0 -0 -0 nan nan -0 -0 -0 -0 -0 -0 -0 -0 -0 -0 -0 -0 -0 -0 -0 -0 -0 -0 -2 -2 -0 -0 -0 -0 -0 -0 -0 -0 -0 -0 -0 -0
-0 -0 -0 -0 -0 -0 -0 -0 -0 -0 -0 -0 -0 -0 -0 -0 -0 -0 -0 -0 -0 -0 -0 -0 -0 -0 -0 -0 -0 -0 -0 -0 -0 -0 -0 -0 -0 -0 -0 -0 -0 -0 -0 -0 -0 -0 -0 -2 -2 -0 nan nan -0 -0 -0 -0 -0 -0 -0 -0 -0 -0 -0 -0 -0 -0 -0 -0 -0 -0 -0 -5 nan nan -0 -0 -0 -0 -0 -1 -1 -0 -0 -0 -0 -0
-0 -0 -0 -0 -0 -0 -0 -0 -0 -0 -0 -0 -0 -0 -0 -0 -0 -0 -0 -0 -0 -0 -0 -0 -0 -0 -0 -0 -0 -0 -0 -0 -0 -0 -0 -0 -0 -0 -0 -0 -0 -0 -0 -0 -0 -0 -0 -6 -6 -6 -1 -0 -0 -0 -0 -0 -0 -0 -0 -0 -0 -0 -0 -0 -0 -0 -0 -0 nan nan -7 nan -1 -1 -0 -0 -0 -0 -0 -1 -1 -3 -0 -0 -0 -0
-0 -0 -0 -0 -0 -0 -0 -0 -0 -0 -0 -0 -0 -0 -0 -0 -0 -0 -0 -0 -0 -0 -0 -0 -0 -0 -0 -0 -0 -0 -0 -0 -0 -0 -0 -0 -0 -0 -0 -0 -0 -0 -0 -0 -0 -0 -0 -2 -2 -0 -0 -0 -0 -0 -0 -0 -0 -0 -0 -0 -0 -0 -0 -0 -0 -0 -0 nan nan nan nan nan nan nan nan -0 -0 -0 -0 -0 -0 -0 -0 -0 -0 -0
-0 -0 -0 -0 -0 -0 -0 -0 -0 -0 -0 -0 -0 -0 -0 -0 -0 -0 -0 -0 -0 -0 -0 -0 -0 -0 -0 -0 -0 -0 -0 -0 -0 -0 -0 -0 -0 -0 -0 -0 -0 -0 -0 -0 -0 -0 -0 -1 -1 -0 -0 -0 -0 -0 -0 -0 -0 -0 -0 -0 -0 -0 -0 -0 -0 -0 -4 -9 -27 -27 -20 nan -4 -4 nan -1 -0 -0 -0 -0 -0 -0 -2 -1 -1 -2
-0 -0 -0 -0 -0 -0 -0 -0 -0 -0 -0 -0 -0 -0 -0 -0 -0 -0 -0 -0 -0 -0 -0 -0 -0 -0 -0 -0 -0 -0 -0 -0 -0 -0 -0 -0 -0 -0 -0 -0 -0 -0 -0 -0 -0 -0 -0 -0 -0 -0 -0 -0 -1 -1 nan -0 -0 -0 -0 -0 -0 -0 -0 -0 -0 -0 -0 -1 -14 -14 -19 -11 -4 -4 nan -0 -0 -0 -0 -0 -0 -0 -0 -0 -0 -0
Wind_Speed
2 2 2 3 3 3 4 5 5 5 4 4 4 5 5 6 6 7 8 9 9 9 9 9 9 9 10 12 13 13 14 14 15 15 15 16 16 16 16 17 17 17 17 17 17 17 18 18 18 18 18 18 18 18 18 18 19 19 19 19 20 20 20 21 21 21 21 22 22 22 22 22 22 22 22 22 22 23 23 23 23 23 23 23 24 24
2 2 2 3 3 3 4 5 5 5 4 5 5 5 6 6 7 6 7 8 9 9 8 8 9 10 11 11 12 13 14 14 14 15 15 16 16 17 17 17 17 17 17 17 17 17 17 17 18 18 18 18 18 18 18 18 19 19 19 19 20 20 20 21 21 21 21 22 22 22 22 22 22 22 22 23 23 23 23 24 24 24 24 24 24 24
2 2 2 3 3 4 3 4 5 5 5 6 6 6 7 8 7 6 6 6 7 7 8 8 8 9 10 10 11 13 13 14 14 15 16 16 17 17 17 17 17 17 17 17 17 17 17 17 17 18 18 18 18 18 18 19 19 19 19 19 20 20 20 21 21 21 21 22 22 22 22 22 23 23 23 23 24 24 24 24 24 24 24 24 24 24
2 2 2 2 3 3 3 4 4 4 5 5 6 7 8 8 7 6 6 6 6 7 7 8 9 9 9 9 10 11 13 14 15 15 16 16 17 17 17 17 17 17 17 17 17 17 17 17 17 18 18 18 18 19 19 19 19 19 20 20 20 20 20 21 21 21 21 22 22 22 22 22 23 23 23 23 24 24 24 24 24 24 24 25 25 25
2 2 2 1 2 2 3 3 3 4 4 5 6 7 7 6 6 5 5 6 7 7 7 8 8 8 8 8 9 11 13 14 15 16 16 16 17 17 17 17 17 17 17 17 17 17 17 18 18 18 18 18 19 19 19 19 20 20 20 20 20 20 21 21 21 21 21 21 22 22 22 22 22 22 23 23 23 24 24 24 24 24 24 25 25 25
2 1 1 1 2 2 2 3 3 3 4 5 5 6 6 5 5 5 5 6 6 6 6 6 7 8 8 8 9 11 13 14 15 15 16 16 16 16 16 16 16 16 17 17 17 18 18 18 18 19 19 19 19 20 20 20 20 20 20 20 21 21 21 21 21 21 21 21 21 21 21 22 22 22 22 23 23 23 23 23 24 24 24 24 25 25
2 1 1 1 2 2 2 3 3 3 4 4 4 4 5 5 5 5 6 6 6 6 6 6 7 7 8 9 10 11 12 13 13 14 14 15 15 15 15 16 16 16 17 17 18 18 18 19 19 19 19 20 20 20 20 21 21 21 21 21 21 21 21 21 21 21 21 21 21 21 21 21 21 22 22 22 22 23 23 23 23 24 24 24 24 25
2 2 1 2 2 2 3 3 3 3 4 4 4 4 4 4 4 5 6 6 6 6 6 6 6 7 7 8 9 9 9 10 10 11 11 12 13 13 14 15 16 16 17 18 18 18 19 19 19 20 20 20 20 21 21 21 21 21 21 21 21 21 21 20 20 20 20 20 20 21 21 21 21 21 21 22 22 22 22 23 23 23 24 24 24 25
2 2 2 2 3 3 3 3 3 3 4 4 4 4 4 5 4 5 5 5 5 5 5 6 6 6 7 7 7 8 8 8 8 8 9 9 10 11 13 14 15 16 17 17 18 19 19 19 20 20 20 20 21 21 21 21 21 21 20 20 20 20 20 20 20 20 20 20 20 20 21 21 21 21 21 21 22 22 22 22 23 23 23 24 24 25
2 3 3 3 3 3 3 3 3 3 4 4 4 4 4 5 5 5 5 5 4 4 4 5 6 7 7 7 7 7 8 8 9 10 11 11 11 12 13 13 13 14 16 17 18 18 19 19 19 20 20 20 20 20 20 20 20 20 20 20 19 19 19 19 19 20 20 20 20 20 21 21 21 21 21 21 22 22 22 22 23 23 23 24 24 25
2 3 3 3 3 3 3 3 3 3 3 4 4 4 4 4 5 5 5 5 5 4 4 5 6 6 6 7 7 7 7 7 8 9 10 11 12 13 13 13 13 14 15 16 17 17 18 18 19 19 19 19 20 20 19 19 19 19 19 19 19 19 19 19 19 19 20 20 20 21 21 21 21 21 21 22 22 22 22 23 23 23 23 24 24 24
2 2 2 2 2 3 3 3 3 3 3 3 3 4 4 3 3 4 5 6 6 5 5 5 5 6 6 7 7 7 7 7 6 6 7 8 9 9 10 10 10 11 13 13 14 15 16 17 17 18 18 18 18 18 18 18 18 18 18 18 18 18 19 19 19 20 20 20 21 21 21 21 21 22 22 22 22 23 23 23 23 23 23 24 24 24
2 2 2 2 3 3 3 3 3 2 2 3 3 4 3 3 3 3 4 5 6 6 6 6 5 6 7 7 6 6 6 6 6 6 6 6 6 7 7 7 8 8 9 9 10 11 13 15 15 16 16 17 17 17 17 17 17 17 17 18 18 18 19 19 20 20 21 21 21 21 22 22 22 22 22 23 23 23 23 23 23 23 24 24 24 24
3 3 3 3 3 3 3 3 3 3 3 3 3 4 4 4 4 4 4 5 5 5 6 6 6 6 6 6 6 6 6 6 6 6 6 6 6 6 7 7 7 7 8 8 8 9 11 12 12 12 14 15 16 16 15 16 16 17 17 18 19 19 20 20 21 21 21 22 22 22 22 22 22 23 23 23 23 23 23 23 23 24 24 24 24 24
3 3 3 4 3 3 3 3 3 3 3 4 4 4 4 4 4 4 4 5 5 5 6 7 7 6 5 5 5 6 6 6 5 5 6 6 6 7 7 7 8 8 8 8 8 9 10 10 10 10 11 13 14 14 15 15 17 18 18 19 20 20 21 21 21 22 22 22 22 22 22 23 23 23 23 23 23 23 23 23 24 24 24 24 24 24
3 3 4 4 4 3 3 3 3 4 4 4 4 4 4 4 4 4 4 5 5 5 5 6 6 6 5 5 5 6 6 5 5 6 7 7 7 7 8 8 8 8 8 8 8 8 9 9 9 10 10 13 15 16 17 17 18 19 20 20 21 21 22 22 22 22 22 22 22 23 23 23 23 23 23 23 23 23 23 23 23 24 24 24 24 24
3 3 3 4 4 4 4 3 4 4 4 4 4 4 4 4 4 4 4 4 4 4 4 5 5 5 4 4 4 5 6 5 5 5 7 7 7 7 7 8 8 8 8 8 8 8 8 8 8 9 10 12 15 17 18 19 20 21 21 21 22 22 22 22 22 22 22 23 23 23 23 23 23 23 23 23 23 23 23 23 23 23 24 24 24 24
3 3 3 4 4 4 4 4 4 4 4 4 4 4 4 4 4 4 5 4 4 4 4 4 4 4 4 4 4 4 6 6 6 6 7 8 8 7 7 7 8 8 9 9 8 8 8 8 9 9 11 15 17 19 20 21 21 21 22 22 22 22 22 22 22 23 23 23 23 23 23 23 23 23 23 23 23 23 23 23 23 23 23 23 23 24
3 3 3 4 4 4 4 4 4 4 4 4 4 4 4 4 5 5 5 5 5 5 5 5 5 5 5 5 5 6 6 6 6 6 7 8 8 7 7 7 8 8 9 9 9 8 8 9 10 12 15 18 19 20 21 21 22 22 22 22 22 22 23 23 23 23 23 23 23 23 23 23 23 23 23 23 23 23 23 23 23 23 23 23 23 23
4 3 3 4 4 4 4 4 3 3 4 4 4 4 5 5 5 5 5 5 5 5 5 6 6 6 5 6 7 7 7 6 6 6 7 8 8 8 7 7 8 8 9 8 8 8 8 9 10 12 15 17 19 20 21 21 22 22 22 23 23 23 23 23 23 23 23 23 23 23 24 24 23 23 23 23 23 23 23 23 23 23 23 23 24 24
4 4 4 3 3 3 3 3 4 4 5 5 5 5 5 5 5 5 5 5 5 5 5 6 6 6 6 7 7 7 7 7 6 5 5 6 7 7 6 6 7 8 9 8 8 8 8 9 9 10 12 16 18 20 21 22 22 23 23 23 23 23 23 23 23 23 23 23 23 23 24 24 24 24 24 23 23 23 23 24 24 24 24 24 24 24
5 5 5 5 5 4 4 4 5 6 7 6 6 6 5 5 5 5 5 5 5 6 6 6 6 7 7 8 8 8 7 6 6 5 4 5 7 7 6 6 7 8 9 8 8 8 8 9 9 10 12 16 19 20 22 22 23 23 23 23 23 23 23 23 23 23 23 23 23 23 24 24 24 24 24 24 23 24 24 24 24 24 24 24 24 24
5 5 5 6 5 5 5 5 6 7 7 7 7 6 4 5 5 5 5 5 6 6 6 6 7 8 8 8 8 8 7 6 6 5 4 6 7 7 5 6 6 7 8 8 8 8 9 9 9 10 13 17 19 20 22 22 23 23 23 23 23 23 23 23 23 23 23 23 23 23 24 24 24 24 24 24 24 24 24 24 24 24 24 24 24 24
5 5 5 5 5 4 4 5 6 6 6 6 6 5 4 4 5 5 5 6 6 6 6 7 7 8 8 8 8 7 7 6 5 4 4 5 6 6 5 6 7 8 8 8 8 8 9 9 9 9 11 15 18 20 21 22 22 23 23 23 23 23 23 23 23 23 23 23 23 23 24 24 24 24 24 24 24 24 24 24 24 24 24 24 24 24
5 5 5 5 5 5 6 7 7 7 6 5 4 3 4 5 6 6 6 6 6 6 6 7 8 8 7 7 7 6 5 5 4 4 4 4 5 6 6 6 7 7 8 8 8 8 9 9 9 9 10 13 16 19 20 21 22 22 22 22 22 22 22 22 23 23 23 23 23 24 24 24 24 24 24 24 24 24 24 24 24 24 24 24 24 24
7 7 7 8 8 10 11 11 11 11 11 8 7 6 6 6 6 6 7 6 6 6 7 7 7 7 6 5 5 5 4 4 4 4 4 4 5 6 6 5 6 7 8 8 8 8 9 9 9 10 10 11 14 17 19 20 20 21 21 21 21 22 22 22 23 23 23 23 23 24 24 24 24 24 24 24 24 24 24 24 24 24 24 24 24 24
8 9 10 11 11 12 12 13 14 14 15 13 11 10 8 7 7 7 7 7 6 6 6 7 7 7 6 5 5 4 4 3 4 4 4 5 5 5 5 5 6 7 8 8 8 8 10 10 10 10 10 10 11 13 16 18 19 19 20 21 21 22 22 22 23 23 23 23 23 23 23 23 23 23 23 23 24 24 24 24 24 24 24 23 21 20
7 7 8 9 10 11 12 13 13 14 15 15 15 14 10 8 7 7 7 6 6 5 6 6 6 6 6 5 5 5 5 4 4 5 5 4 5 5 5 5 6 6 7 7 8 8 10 10 10 10 10 9 10 10 13 15 17 18 19 20 21 21 22 22 22 22 22 22 22 23 23 23 23 23 23 23 23 23 23 24 24 23 22 19 15 13
5 6 7 8 9 11 12 12 13 14 14 15 14 13 10 7 7 7 7 6 5 5 6 6 6 6 5 6 5 5 6 5 5 5 4 4 4 4 5 5 6 6 6 6 7 7 8 8 8 8 8 9 9 9 10 12 14 15 16 18 19 20 20 20 21 21 21 22 22 22 22 23 23 23 23 23 23 23 23 24 23 21 17 14 12 10
5 6 7 8 9 10 11 11 11 12 13 13 13 12 9 7 7 6 6 5 5 5 6 6 6 6 5 5 5 5 5 4 4 3 3 3 4 4 5 6 6 5 5 5 5 6 6 6 6 7 7 8 9 8 8 9 10 11 12 14 15 16 18 19 19 20 20 21 21 22 22 22 23 23 23 23 23 23 23 23 21 17 12 10 10 9
6 7 7 8 8 8 8 8 8 9 10 10 10 9 8 7 6 6 5 5 5 5 6 6 6 5 5 4 4 4 3 3 2 2 2 3 4 4 5 6 6 5 4 4 4 5 6 5 5 5 7 8 8 9 9 9 9 9 9 10 11 12 15 17 18 18 19 20 20 21 21 22 22 22 22 22 22 22 22 23 20 16 11 9 9 9
6 6 6 7 6 6 6 6 6 6 6 6 6 6 6 6 5 5 5 4 5 5 5 6 6 6 6 5 5 5 4 3 4 4 4 4 4 4 5 5 6 6 5 4 5 5 6 5 5 5 7 8 8 9 9 9 9 9 9 10 10 10 13 14 15 16 16 17 18 19 20 20 21 21 21 21 21 22 22 22 20 16 11 9 9 9
7 6 6 6 6 6 5 5 5 5 5 5 4 4 5 5 5 5 4 4 5 5 5 6 6 6 6 6 6 6 6 5 5 6 6 5 4 4 4 5 6 6 5 5 6 6 6 6 6 6 7 8 8 8 9 9 9 9 9 9 9 10 11 12 12 12 12 13 14 16 17 18 19 19 20 20 20 20 21 21 20 17 13 10 9 9
7 7 6 6 6 5 5 5 5 5 4 4 4 4 4 4 4 4 5 5 5 5 5 6 6 6 6 6 6 7 7 6 7 7 6 5 4 4 5 6 6 6 6 5 6 6 6 7 8 7 7 7 7 8 8 9 9 9 9 9 9 9 10 10 10 10 10 11 11 11 12 13 14 16 17 17 18 18 19 19 19 18 17 13 11 9
6 6 6 6 5 5 5 5 5 4 4 4 4 4 3 3 4 4 4 5 5 5 5 6 6 6 6 6 7 7 7 7 7 7 7 5 5 4 5 6 6 6 6 6 6 6 6 8 9 9 8 8 8 7 7 8 8 9 8 9 9 9 9 9 9 9 10 10 10 10 10 10 10 11 12 14 15 16 18 19 19 19 20 18 15 12
5 5 5 5 5 4 4 4 4 4 4 3 3 3 3 4 4 4 4 5 5 5 6 6 6 6 7 7 8 8 8 7 7 8 8 6 5 5 5 5 6 6 6 7 7 6 6 8 9 10 10 9 8 7 7 7 8 8 9 9 9 9 9 9 9 9 10 10 10 10 9 9 9 10 10 13 15 17 18 19 20 20 20 20 19 17
5 5 5 4 4 4 4 4 4 3 3 3 3 3 4 4 4 5 5 5 5 6 6 7 8 8 9 9 9 9 9 9 9 9 9 8 7 6 6 6 6 7 7 7 7 7 7 8 9 9 9 9 8 7 7 7 8 8 9 9 9 9 10 10 10 10 10 10 10 10 10 10 10 10 11 13 15 16 17 18 19 19 20 20 20 20
5 5 4 4 3 3 3 3 3 3 3 3 4 4 4 5 5 6 6 6 7 7 7 7 8 9 12 12 12 12 12 12 13 13 13 10 9 8 7 7 8 8 7 8 8 8 8 8 9 9 9 8 9 9 9 9 9 9 9 10 10 10 10 10 10 9 9 10 10 11 11 10 10 10 10 11 11 11 12 12 13 14 16 17 18 19
4 4 4 4 3 3 3 4 4 4 4 4 4 5 5 6 6 7 6 7 7 8 8 8 8 9 10 12 13 15 15 15 14 14 13 12 10 9 9 8 9 9 8 8 8 8 8 8 9 9 8 9 9 9 9 9 9 10 10 10 10 10 10 10 9 9 9 10 10 11 11 10 10 10 10 9 9 9 9 9 10 11 11 11 12 14
4 4 4 4 4 4 4 4 4 4 4 5 5 5 6 6 6 6 6 7 7 7 8 9 9 8 9 10 12 13 14 13 12 13 12 11 10 10 9 9 9 9 8 8 8 8 8 9 9 10 10 9 9 9 9 9 10 10 11 10 9 8 9 9 10 10 9 10 10 10 10 9 9 9 9 9 9 9 9 9 9 9 9 9 9 9
4 4 4 4 4 4 4 4 4 5 5 5 5 5 5 5 5 5 5 6 6 6 7 7 8 8 8 9 10 11 12 12 13 13 11 11 11 11 10 9 9 9 9 8 8 8 9 9 10 10 10 10 10 11 11 11 12 13 13 11 10 10 11 11 11 10 10 10 10 10 10 10 10 10 10 10 9 9 9 9 9 10 9 9 8 8
5 4 4 4 4 4 4 4 5 5 5 5 5 5 5 5 5 5 5 5 5 5 5 6 6 7 8 8 9 10 11 11 11 11 11 11 11 11 11 10 9 9 8 9 9 9 9 10 10 10 10 10 10 10 10 11 12 12 12 12 12 12 12 11 10 9 9 9 9 10 11 10 10 10 10 10 10 10 10 10 11 11 11 9 9 9
4 4 4 4 4 4 5 5 5 5 5 5 5 5 5 4 4 5 5 5 6 6 6 6 6 7 7 8 8 8 8 9 10 11 11 10 10 11 11 11 10 9 8 8 9 9 10 10 10 10 10 10 10 10 11 11 11 11 12 12 12 10 8 8 8 8 9 9 10 10 10 10 10 10 10 10 10 9 10 11 12 13 12 10 10 10
4 4 4 4 4 4 5 5 5 5 5 5 5 5 5 5 5 6 6 6 6 6 6 6 6 7 7 8 8 8 7 8 8 9 10 10 10 10 11 12 12 11 10 9 9 9 9 10 10 10 10 10 10 10 11 11 11 11 11 12 12 11 10 9 9 10 10 10 10 10 10 10 10 10 10 10 10 9 9 10 10 11 11 11 10 10
4 4 4 4 4 4 4 5 5 5 5 5 5 6 5 6 6 5 5 6 6 6 6 6 6 6 6 7 7 7 7 7 7 7 8 9 11 11 11 11 10 10 10 10 9 9 9 9 10 10 9 9 10 10 11 11 12 12 12 12 12 12 12 12 11 11 10 10 10 11 11 11 10 10 10 10 10 10 10 10 10 10 10 10 10 10
4 4 4 4 4 4 5 5 5 5 5 6 6 6 6 6 5 5 6 6 7 7 6 6 6 6 7 7 7 7 7 7 7 6 6 7 8 8 9 9 9 8 8 9 9 9 9 10 10 10 10 10 10 11 11 11 11 12 12 12 12 12 12 11 11 11 11 11 11 11 12 11 11 10 10 10 10 10 10 10 10 10 10 10 10 10
4 4 4 4 4 5 5 5 5 5 6 6 6 6 6 6 6 6 6 6 6 6 6 6 6 7 8 8 8 7 8 8 8 7 7 7 7 8 8 8 8 8 8 8 9 10 10 11 11 11 10 10 11 11 11 11 11 11 12 12 11 11 11 11 10 10 11 11 11 11 12 11 10 10 11 11 11 10 10 10 10 10 10 10 10 10
4 4 5 5 5 5 5 5 5 6 6 6 6 6 6 6 6 6 6 6 6 6 6 6 6 7 8 8 8 8 8 9 9 8 8 7 7 7 7 7 7 7 8 9 10 11 11 12 12 12 11 11 11 11 11 11 11 11 11 11 11 11 11 11 11 10 10 11 11 11 10 9 9 10 10 11 10 10 10 10 10 9 9 10 10 10
4 4 5 5 5 5 6 6 6 6 6 7 6 6 6 6 7 7 6 6 6 6 6 7 7 7 8 8 8 8 9 9 9 8 8 8 7 7 7 7 7 7 8 9 9 10 11 11 12 13 12 12 12 12 12 12 11 11 11 11 10 10 11 11 11 10 10 10 10 10 9 8 9 9 9 10 11 11 11 10 10 9 9 9 9 10
4 4 5 5 5 6 6 6 6 6 7 7 7 7 6 6 6 6 6 6 6 6 6 7 7 8 8 8 8 8 9 9 9 8 8 8 7 7 7 7 7 7 8 8 8 8 8 8 9 11 12 13 13 13 12 12 12 11 11 10 10 10 10 10 10 10 10 10 10 10 9 9 8 8 9 10 11 12 12 11 10 9 8 8 9 9
4 5 5 5 5 6 6 6 6 6 7 7 7 7 7 7 6 6 6 6 6 6 7 7 7 8 8 9 9 9 9 9 9 9 9 8 8 8 8 8 7 8 8 7 7 7 6 6 6 7 9 12 13 13 11 11 11 11 10 10 9 9 9 10 10 10 11 11 10 9 9 9 8 8 8 9 10 11 12 11 11 10 9 8 8 9
Wind_Direction
220 225 191 180 198 229 248 249 255 262 270 277 283 288 291 290 289 288 289 289 289 288 287 285 284 284 284 285 286 287 288 290 291 293 294 295 296 296 297 296 296 295 295 294 293 292 291 290 290 289 288 287 287 286 286 285 285 285 284 284 284 284 284 284 284 284 285 285 285 285 285 286 286 287 287 287 286 286 285 284 283 282 282 281 281 281
204 211 195 195 211 237 261 261 263 267 274 281 285 290 293 292 291 290 289 287 286 285 285 285 285 286 286 287 287 288 289 290 292 293 295 296 297 297 297 297 296 295 294 294 293 292 291 290 289 288 288 287 287 286 286 286 285 285 285 284 284 284 284 285 285 286 286 286 286 286 286 286 286 287 287 286 286 285 284 282 282 281 281 280 280 280
211 220 219 211 220 237 261 270 274 276 279 284 287 290 291 290 288 287 286 285 285 284 284 285 286 286 287 287 288 288 289 290 292 294 295 296 297 297 297 297 296 295 294 293 292 291 291 290 289 289 289 288 288 287 287 286 286 286 286 286 286 286 286 286 287 287 287 287 287 287 287 287 286 286 286 285 285 284 283 282 282 281 281 281 281 280
232 241 243 235 237 246 260 273 281 284 286 286 287 286 284 283 282 282 283 285 285 285 284 284 285 286 287 287 288 288 290 291 293 294 295 296 296 296 296 295 295 294 293 292 292 291 291 290 290 290 290 289 289 288 288 288 287 287 287 287 287 288 288 288 288 288 288 288 288 288 287 287 287 286 286 285 284 284 283 283 282 282 282 282 281 281
238 245 256 263 265 267 270 277 282 284 283 281 280 279 278 278 279 280 282 283 283 284 284 285 286 287 287 287 288 289 290 291 292 293 293 294 294 294 293 293 292 292 292 291 291 291 291 291 291 290 290 290 289 289 289 288 288 288 288 289 289 289 289 289 289 289 289 288 288 288 287 287 286 286 285 285 284 284 283 283 283 282 282 281 281 280
252 254 273 283 284 284 287 284 282 279 278 275 274 275 276 279 280 281 281 281 281 283 284 285 286 286 285 285 287 289 290 291 291 291 291 291 291 291 291 291 291 291 291 291 291 291 291 291 291 291 290 290 290 289 289 289 289 289 289 289 290 290 290 290 290 289 289 289 288 288 287 287 286 285 285 284 284 283 283 283 282 282 281 280 280 279
268 267 272 276 278 279 280 276 272 271 272 273 274 276 279 281 281 281 282 283 284 285 285 284 283 283 283 284 286 289 290 290 290 289 289 289 289 289 290 290 291 291 292 292 292 292 292 292 291 291 291 290 289 289 289 289 289 289 290 290 290 290 290 290 290 289 289 288 288 287 287 286 285 285 284 284 283 283 283 282 282 281 280 279 279 278
275 276 265 265 268 271 271 268 265 265 267 274 280 285 287 287 285 284 284 285 285 285 285 284 283 283 283 286 289 290 291 292 291 291 290 290 290 290 291 292 292 293 293 293 293 292 292 292 291 291 290 289 289 288 288 288 289 289 289 290 290 290 290 289 289 289 288 288 287 287 286 285 285 284 283 283 282 282 281 281 280 280 279 279 278 277
272 277 272 267 271 276 278 274 271 270 273 280 286 292 296 294 291 288 286 284 283 284 287 289 289 289 289 292 293 293 292 292 292 293 293 293 293 294 294 294 294 293 292 292 292 291 291 291 290 289 289 288 288 288 288 288 288 289 289 289 289 289 289 289 288 288 288 287 287 286 286 285 284 283 282 282 281 280 280 279 278 278 278 277 277 277
258 266 271 269 270 272 277 277 277 277 279 283 287 291 292 290 290 290 289 288 289 289 291 292 293 294 295 295 294 293 292 289 288 287 288 290 291 292 292 292 291 291 290 291 290 290 289 289 289 288 288 287 287 287 287 287 288 288 288 288 288 288 288 288 288 288 288 288 287 286 285 285 283 283 282 281 280 279 278 278 277 277 276 276 276 276
257 261 269 272 272 270 269 273 277 279 279 281 279 274 268 273 282 292 296 297 299 298 296 293 294 295 297 296 294 293 292 289 287 286 286 288 289 290 290 290 289 289 290 290 289 289 289 289 288 288 288 287 287 287 287 287 287 287 287 287 287 288 288 288 288 288 288 287 286 286 285 284 283 282 282 281 280 280 279 278 277 277 276 276 276 276
271 275 277 280 279 275 269 267 266 265 266 271 270 266 261 269 284 297 300 301 302 301 299 295 293 292 293 294 294 293 291 290 290 290 290 291 292 293 293 294 293 293 293 292 291 290 290 290 289 289 288 287 286 286 286 286 286 286 286 287 287 288 288 288 288 288 287 287 286 285 285 284 283 283 282 282 281 280 280 279 278 278 277 276 276 276
271 274 274 272 271 268 266 265 264 263 263 271 277 282 288 297 301 300 296 295 297 298 298 295 293 290 289 290 290 290 290 291 292 294 296 297 299 302 303 303 302 301 298 296 294 292 291 291 290 288 287 286 285 285 284 285 285 286 286 287 288 288 288 289 288 288 288 287 287 286 285 285 284 284 283 283 282 281 280 280 279 278 277 276 276 275
269 268 266 264 263 263 265 274 281 288 288 284 286 290 296 300 299 295 290 290 292 294 295 294 293 292 290 288 287 289 291 294 296 297 298 300 303 305 307 305 302 301 298 295 293 291 292 292 290 288 286 285 284 284 284 285 286 287 288 289 289 290 290 290 289 289 288 288 287 287 286 286 285 285 284 283 282 282 281 280 279 278 277 276 275 275
274 272 270 269 270 275 286 296 298 295 291 287 287 290 291 292 292 292 291 292 293 293 292 291 291 291 290 291 292 293 295 296 298 300 300 301 303 305 304 302 299 297 295 293 291 290 291 290 289 287 286 284 285 286 287 289 289 289 290 290 290 290 290 290 290 289 289 288 288 287 286 286 285 284 284 283 283 282 281 281 280 278 277 276 275 275
280 279 280 284 289 297 304 301 295 289 285 284 284 287 289 291 292 293 292 293 294 294 293 294 295 294 291 292 294 296 298 299 301 303 302 300 301 302 303 301 299 296 293 290 289 288 289 287 285 285 285 286 287 288 289 289 289 289 289 289 290 290 290 290 289 289 289 288 287 287 286 285 285 284 284 283 283 282 282 281 280 279 278 277 276 275
275 279 284 290 293 295 294 289 285 283 283 284 285 286 289 294 296 295 291 290 291 292 292 295 296 297 295 295 296 299 304 305 306 305 302 299 299 301 303 300 296 293 289 287 286 286 287 285 285 285 285 286 288 289 289 289 289 289 289 289 289 289 289 289 289 289 288 288 287 286 286 285 285 284 284 283 283 282 282 281 281 280 279 278 277 276
272 279 282 283 283 284 285 283 281 281 282 285 288 291 294 295 292 288 284 283 283 284 285 285 287 290 295 298 300 305 309 310 309 305 301 297 297 298 299 295 291 288 286 285 285 285 285 284 284 284 285 287 288 288 288 288 288 288 288 289 289 289 289 289 289 288 288 288 287 286 286 285 285 285 284 284 283 282 282 281 280 280 279 278 278 277
280 278 277 277 277 277 275 274 276 280 284 290 295 297 294 287 281 276 275 275 276 278 281 284 285 287 290 291 295 301 308 309 309 305 299 294 294 294 295 291 287 285 283 282 283 283 283 283 283 284 285 286 287 287 288 288 288 288 289 289 289 289 289 289 289 288 288 288 287 287 286 286 286 285 284 284 283 282 282 281 280 280 279 278 278 277
278 273 268 270 273 274 274 276 281 287 292 295 295 291 285 279 275 272 271 270 271 274 278 281 283 283 284 286 291 298 307 309 307 301 294 291 290 290 291 288 286 284 282 282 282 284 284 284 285 285 285 286 286 287 288 288 289 289 289 289 289 289 289 289 289 289 289 288 288 287 287 286 286 285 284 284 283 282 281 280 280 279 278 277 276 276
280 277 274 279 281 282 283 285 288 290 291 291 287 280 275 273 271 271 272 273 273 274 274 274 276 280 285 288 293 299 306 305 301 294 289 287 286 286 288 287 285 283 282 282 282 284 284 284 284 284 285 287 288 288 289 289 289 289 289 289 289 289 290 290 290 289 289 289 288 288 287 287 286 285 284 283 282 281 280 279 279 278 277 276 276 275
282 282 283 284 283 282 282 283 284 283 281 276 270 266 265 268 272 275 278 278 278 278 278 279 282 285 287 289 291 295 299 294 289 284 285 282 282 283 284 283 282 281 281 283 284 285 285 285 285 286 287 288 288 289 289 289 288 289 289 289 290 290 290 290 290 290 290 289 288 288 287 286 286 285 284 283 282 282 281 280 279 278 277 277 276 276
281 283 285 283 281 279 280 281 279 275 270 264 261 259 262 267 271 275 277 278 280 282 285 285 285 285 284 285 286 286 283 277 272 270 272 275 278 281 285 286 284 282 281 284 287 288 288 287 287 287 288 288 288 288 288 288 288 288 289 289 290 290 290 290 290 290 289 289 288 288 287 287 286 286 285 285 284 283 283 282 281 280 279 278 277 277
277 277 278 277 275 272 271 268 266 263 260 259 259 260 259 258 261 267 274 280 284 286 286 286 284 283 281 281 280 278 274 269 265 263 265 272 278 283 289 288 285 283 283 286 289 291 291 289 289 288 288 288 288 288 288 288 288 288 289 289 289 290 290 290 289 289 289 289 289 288 288 288 288 288 287 287 286 285 284 283 282 281 280 279 278 277
278 276 275 271 268 264 262 263 266 269 273 273 272 269 266 268 273 278 283 285 285 285 284 283 281 280 279 278 277 277 276 275 271 267 266 273 278 281 285 286 286 286 287 290 292 293 292 291 290 289 289 288 288 288 288 288 288 288 288 288 288 289 289 289 289 289 289 289 289 289 289 289 288 288 287 287 286 285 284 283 282 281 280 279 278 277
279 277 275 274 272 271 271 275 280 286 294 297 299 298 296 296 294 292 288 284 281 279 278 276 276 277 280 282 283 283 283 278 271 265 264 271 277 280 284 287 287 288 289 291 293 293 293 293 293 292 291 289 287 286 286 286 287 287 287 288 288 288 289 289 289 289 289 289 289 288 288 287 287 287 286 286 285 284 283 283 282 281 281 280 279 277
275 274 275 276 278 279 281 284 287 290 294 295 296 298 300 299 294 287 279 277 276 275 274 274 276 279 282 282 281 282 287 286 278 270 265 269 275 279 284 287 288 289 291 292 294 296 295 293 291 289 287 285 284 284 285 286 287 287 288 288 289 289 289 289 289 289 288 288 287 287 287 286 286 285 285 285 284 284 283 283 282 282 281 281 280 278
268 270 274 278 281 282 283 284 284 286 287 289 291 292 292 287 281 275 271 273 273 272 269 270 274 278 281 281 284 287 292 287 279 271 265 266 270 276 283 289 292 294 295 295 294 293 290 286 284 282 281 281 282 284 286 288 289 290 290 289 289 289 288 288 288 287 287 287 287 286 286 285 285 285 284 284 284 283 283 283 283 282 282 281 280 277
261 268 274 277 277 278 278 278 279 280 281 283 284 284 281 274 268 266 267 269 269 267 264 265 268 273 278 284 288 289 286 276 267 262 263 266 271 276 285 292 295 298 299 298 295 290 284 280 280 281 282 285 287 290 292 293 293 291 290 289 288 288 287 287 287 287 287 286 286 286 285 285 285 284 284 284 283 283 283 283 283 283 282 280 278 276
276 277 276 274 272 272 272 273 274 276 277 278 277 274 268 262 258 258 262 263 262 261 261 263 265 269 275 282 285 283 274 264 259 260 272 275 276 281 291 295 297 299 303 302 299 294 287 282 281 283 287 291 294 295 295 294 293 291 289 289 288 288 287 287 287 287 286 286 286 285 285 285 285 284 284 284 284 283 283 283 283 283 281 278 276 274
283 280 277 275 273 271 271 271 272 273 274 272 270 266 259 255 253 254 257 257 256 257 259 262 264 266 269 274 276 275 272 272 284 302 303 283 280 284 293 294 295 295 298 298 297 297 296 291 288 289 294 296 295 294 292 291 291 290 290 290 289 288 288 288 287 287 287 286 286 286 286 285 285 285 284 284 284 283 283 283 282 282 279 277 274 272
279 276 276 276 275 273 271 269 268 268 268 266 261 256 251 250 251 252 254 254 253 254 257 259 262 263 262 262 264 268 273 282 295 301 297 285 281 284 290 290 291 291 291 286 284 287 293 295 297 299 298 295 292 290 289 290 290 290 291 290 289 288 288 288 288 288 287 287 287 287 287 286 285 285 284 283 283 282 281 281 281 280 277 275 273 272
281 280 278 277 275 271 267 263 262 261 261 259 256 252 248 248 249 251 253 252 252 253 255 259 261 263 262 261 261 263 267 273 281 286 287 285 284 285 289 289 290 290 290 282 277 275 278 285 291 295 294 291 289 289 290 290 290 289 289 289 288 288 289 290 290 289 289 289 288 288 287 286 285 284 283 282 281 280 280 279 279 277 275 274 272 271
280 278 276 274 272 268 264 261 259 257 256 256 255 254 252 251 250 251 251 251 252 253 255 258 261 263 265 264 264 264 266 268 273 279 286 286 285 286 289 288 289 289 290 284 279 276 274 278 284 290 292 290 289 288 289 290 289 288 287 287 288 289 291 291 291 290 290 290 289 288 288 287 285 284 283 281 280 280 279 278 277 276 274 272 270 268
278 276 274 271 268 266 265 263 261 260 258 258 259 260 260 260 257 255 254 254 253 254 254 256 258 260 263 265 266 267 268 270 275 282 288 286 285 286 286 285 285 286 286 284 283 282 280 282 284 288 291 292 290 288 287 288 289 289 288 288 288 289 290 291 292 291 291 289 288 287 287 286 285 284 282 281 280 279 279 278 277 275 274 271 269 267
278 276 273 270 268 269 271 271 270 269 269 270 271 273 272 269 266 264 261 260 259 257 256 256 256 256 257 260 263 266 269 274 279 283 284 283 282 282 282 281 282 283 283 282 282 282 282 284 285 287 288 289 290 290 288 290 292 293 292 291 290 290 289 290 290 290 289 288 286 286 285 285 284 283 282 281 280 280 280 278 277 276 274 272 270 267
276 275 273 274 276 278 280 279 280 282 286 286 286 285 283 280 277 274 272 268 265 263 261 259 256 254 252 253 256 260 266 272 275 277 278 278 278 277 276 278 279 278 277 278 279 281 282 284 285 285 284 284 286 290 295 298 297 295 293 292 292 291 290 289 288 286 285 283 283 283 283 284 283 283 283 282 282 281 280 279 277 276 274 272 270 268
275 277 280 284 287 288 287 288 290 293 295 294 292 290 289 286 283 280 276 271 267 264 262 259 257 255 253 254 255 258 263 267 270 272 273 274 273 272 271 274 274 272 269 271 274 277 279 281 284 285 284 283 284 287 293 297 297 295 293 293 292 291 290 288 286 283 282 282 283 283 284 284 284 284 283 282 282 281 279 277 275 274 273 271 269 267
278 283 288 291 292 292 292 294 297 298 298 297 295 293 290 285 281 278 274 271 267 264 261 260 260 259 257 257 258 259 261 263 264 265 265 264 263 263 265 268 270 270 267 266 267 269 272 274 277 280 284 286 287 288 290 291 292 293 294 295 292 288 285 286 286 286 285 286 286 286 285 283 282 281 280 279 278 276 275 274 273 272 271 271 269 267
284 287 289 291 292 293 296 296 298 300 300 297 294 290 286 283 280 277 274 271 269 267 266 265 265 264 263 262 261 260 260 259 258 257 256 252 250 251 255 260 264 267 267 265 263 263 264 267 270 273 276 280 284 287 288 287 287 289 293 293 291 289 289 290 291 290 288 286 284 283 282 281 279 278 276 275 273 272 271 271 271 270 270 270 270 270
286 287 288 290 292 294 294 297 299 299 297 292 289 285 282 281 280 279 277 274 273 272 272 270 269 268 267 264 263 262 262 261 259 256 252 247 243 243 248 252 257 262 265 264 263 261 261 265 268 271 273 275 278 280 281 281 283 285 288 287 286 288 291 290 289 287 285 281 279 278 279 280 279 278 277 275 273 270 269 269 269 269 268 266 266 266
284 285 288 293 297 300 301 301 298 295 290 287 285 283 283 283 283 283 283 282 280 278 276 275 274 273 272 270 267 265 262 261 258 256 252 246 241 240 243 247 251 256 260 263 263 263 262 264 266 269 271 273 276 278 279 279 281 282 282 282 284 287 288 285 283 281 281 281 281 282 282 282 282 281 279 277 275 272 269 267 266 266 266 264 262 260
284 287 293 298 301 302 300 297 293 289 286 284 282 282 282 283 284 285 285 283 282 281 280 278 277 277 278 277 274 270 265 262 261 261 260 253 247 243 243 246 249 252 255 260 264 265 265 264 265 266 269 271 272 274 277 280 281 281 279 281 284 286 287 284 284 284 284 283 284 283 282 281 280 278 278 275 273 271 268 266 264 263 261 261 260 258
289 294 297 297 296 293 290 288 288 289 289 287 286 285 284 283 282 281 281 280 280 280 280 279 278 278 277 277 278 279 279 276 273 271 270 267 260 254 251 250 250 250 251 255 260 266 270 268 267 267 269 270 271 272 274 277 279 280 279 279 279 278 277 282 286 287 285 281 279 278 277 277 277 277 276 274 272 270 267 265 263 261 259 258 257 256
291 293 292 291 289 288 288 289 291 292 291 289 286 285 284 282 281 280 279 280 280 280 279 280 280 280 278 280 284 287 289 287 284 279 275 271 267 262 258 256 254 253 251 252 254 259 266 270 272 273 273 271 270 270 272 275 277 277 277 277 275 274 272 275 278 280 279 278 277 276 276 277 278 278 278 275 273 270 267 265 263 261 258 255 254 253
285 285 285 286 287 289 290 291 291 291 288 285 282 281 281 281 280 278 276 278 279 279 279 279 279 279 281 286 289 291 292 291 290 287 284 280 276 272 267 263 261 259 257 256 255 256 259 264 270 274 277 274 270 267 267 270 273 275 276 276 276 275 274 274 274 275 276 276 277 277 277 278 279 278 277 275 273 271 268 265 263 261 259 256 253 251
283 285 287 290 291 290 289 289 288 287 285 284 283 282 282 281 279 277 274 274 275 277 278 278 276 276 278 283 287 290 292 293 293 292 291 289 287 284 280 275 270 267 265 264 263 262 261 261 264 267 271 273 273 271 269 268 269 271 274 276 276 276 276 275 275 275 275 275 275 276 278 278 277 276 274 275 274 273 270 267 264 261 259 257 254 252
284 287 290 292 291 290 288 287 286 286 285 285 285 284 282 281 279 278 276 275 275 276 278 278 276 276 276 279 281 284 287 290 292 293 293 292 290 288 285 283 280 276 273 271 270 268 266 263 261 260 261 265 268 271 272 270 269 269 271 273 275 276 276 276 276 277 276 274 273 272 273 273 273 274 275 276 276 275 273 271 267 263 260 258 256 254
285 286 288 288 287 287 286 286 285 285 285 287 287 286 284 281 280 279 278 278 277 276 275 276 276 277 278 279 281 283 285 286 288 290 292 292 292 292 290 289 287 286 283 279 276 273 270 265 260 256 253 255 260 265 269 269 269 269 270 272 273 275 276 277 278 279 278 276 274 271 267 267 268 270 273 276 278 278 278 276 274 270 265 262 259 256
282 280 281 281 281 282 283 283 284 284 284 286 287 287 286 285 282 279 277 276 274 273 272 273 276 278 280 281 282 284 285 287 288 289 290 291 292 293 293 293 292 291 289 286 282 280 277 272 264 256 250 249 252 258 265 268 270 271 271 272 274 275 277 280 281 283 283 283 282 278 273 271 269 268 270 274 278 280 282 280 278 275 271 267 263 260
280 278 278 276 276 277 278 279 281 282 283 285 286 287 287 286 284 281 277 275 273 272 272 272 274 276 278 280 282 283 285 286 287 287 288 290 291 292 292 292 293 293 292 291 290 289 288 286 281 272 260 253 251 253 260 267 272 275 276 276 277 279 281 283 285 287 288 288 287 284 281 277 273 271 269 272 277 281 283 282 281 280 278 276 272 268